FW4261 Weather Reports


time (UTC)temp
C
wind
direction
speed
KPH
gust
KPH
rain 1hr
cm
rain 24hr
cm
rain mn
cm
humidity
%
barometer
mb
20260507030319 18 157 0.0 1.6 0.00 0.00 0.00 75 1017.7
20260507025823 19 189 0.0 3.2 0.00 0.00 0.00 73 1017.7
20260507025319 20 218 1.6 3.2 0.00 0.00 0.00 72 1017.6
20260507024819 20 216 0.0 3.2 0.00 0.00 0.00 70 1017.5
20260507024319 20 235 0.0 3.2 0.00 0.00 0.00 70 1017.4
20260507023819 21 260 0.0 1.6 0.00 0.00 0.00 68 1017.4
20260507023324 21 0.0 0.0 0.00 0.00 0.00 66 1017.4
20260507022819 21 0.0 0.0 0.00 0.00 0.00 66 1017.4
20260507022319 22 272 0.0 0.0 0.00 0.00 0.00 65 1017.4
20260507021819 22 0.0 0.0 0.00 0.00 0.00 66 1017.4
20260507021404 22 241 0.0 1.6 0.00 0.00 0.00 66 1017.4
20260507020820 23 270 1.6 3.2 0.00 0.00 0.00 56 1017.3
20260507020400 23 131 0.0 1.6 0.00 0.00 0.00 55 1017.3
20260507015720 23 266 1.6 1.6 0.00 0.00 0.00 54 1017.3
20260507015349 -17 252 0.0 1.6 0.00 0.00 0.00
20260507014742 23 145 0.0 1.6 0.00 0.00 0.00 59 1017.3
20260507014218 23 234 1.6 3.2 0.00 0.00 0.00 58 1017.4
20260507013732 23 298 0.0 1.6 0.00 0.00 0.00 59 1017.5
20260507013232 23 261 1.6 3.2 0.00 0.00 0.00 59 1017.5
20260507012745 23 257 1.6 3.2 0.00 0.00 0.00 61 1017.5
20260507012221 23 273 1.6 3.2 0.00 0.00 0.00 59 1017.5
20260507011751 23 253 1.6 3.2 0.00 0.00 0.00 58 1017.4
20260507011218 23 270 1.6 3.2 0.00 0.00 0.00 61 1017.4
20260507010718 23 262 1.6 3.2 0.00 0.00 0.00 62 1017.4
20260507010218 23 275 1.6 3.2 0.00 0.00 0.00 59 1017.4
20260507005718 23 273 1.6 3.2 0.00 0.00 0.00 59 1017.3
20260507005218 22 243 1.6 3.2 0.00 0.00 0.00 59 1017.3
20260507004718 21 258 1.6 4.8 0.00 0.00 0.00 63 1017.3
20260507004241 21 78 1.6 3.2 0.00 0.00 0.00 64 1017.3
20260507003739 21 253 1.6 3.2 0.00 0.00 0.00 68 1017.4
20260507003220 -17 299 1.6 1.6 0.00 0.00 0.00
20260507002320 22 159 1.6 4.8 0.00 0.00 0.00 64 1017.4
20260507001819 21 258 1.6 3.2 0.00 0.00 0.00 64 1017.4
20260507001319 21 249 1.6 4.8 0.00 0.00 0.00 66 1017.3
20260507000820 21 260 3.2 4.8 0.00 0.00 0.00 64 1017.3
20260507000321 22 270 1.6 3.2 0.00 0.00 0.00 63 1017.3
20260506235841 21 271 3.2 4.8 0.00 0.00 0.00 64 1017.3
20260506235317 21 260 3.2 6.4 0.00 0.00 0.00 66 1017.3
20260506234816 21 243 1.6 4.8 0.00 0.00 0.00 67 1017.4
20260506234316 21 268 1.6 4.8 0.00 0.00 0.00 66 1017.4
20260506233816 21 254 3.2 4.8 0.00 0.00 0.00 67 1017.4
20260506233320 21 256 3.2 4.8 0.00 0.00 0.00 66 1017.4
20260506232819 21 271 3.2 6.4 0.00 0.00 0.00 64 1017.5
20260506232320 21 269 1.6 4.8 0.00 0.00 0.00 64 1017.5
20260506231820 21 318 1.6 4.8 0.00 0.00 0.00 65 1017.5
20260506231405 21 277 3.2 4.8 0.00 0.00 0.00 64 1017.5
20260506230817 21 232 3.2 6.4 0.00 0.00 0.00 62 1017.6
20260506230338 21 244 3.2 6.4 0.00 0.00 0.00 62 1017.7
20260506225817 21 272 1.6 4.8 0.00 0.00 0.00 63 1017.7
20260506225317 21 264 1.6 8.0 0.00 0.00 0.00 65 1017.7
20260506224819 21 263 1.6 3.2 0.00 0.00 0.00 63 1017.8
20260506224324 -17 92 0.0 0.0 0.00 0.00 0.00
20260506223720 21 214 3.2 4.8 0.00 0.00 0.00 62 1017.9
20260506223217 22 320 3.2 6.4 0.00 0.00 0.00 61 1017.9
20260506222738 21 320 1.6 6.4 0.00 0.00 0.00 60 1017.9
20260506222218 21 261 3.2 4.8 0.00 0.00 0.00 62 1018.0
20260506221800 21 263 1.6 6.4 0.00 0.00 0.00 64 1018.1
20260506221238 21 281 3.2 6.4 0.00 0.00 0.00 63 1018.2
20260506220740 -17 262 1.6 3.2 0.00 0.00 0.00